Location: Bailleul
(50.3375°N, 2.8513°E)
Time: 10:14:44
(UTC+00:00)

Cosmos 2016 Rocket - Visible Passes

Search period start: 23 October 2021 00:00
Search period end: 02 November 2021 00:00
Orbit: 946 x 1001 km, 83.0° (Epoch: 22 October)

Date Brightness Start Highest point End Pass type
(mag) Time Alt. Az. Time Alt. Az. Time Alt. Az.
23 Oct 6.4 05:16:15 10° NNE 05:20:49 21° ENE 05:25:22 10° ESE visible
23 Oct 5.5 18:59:51 19° NE 18:59:51 19° NE 19:01:45 10° NNE visible
23 Oct 5.5 20:44:27 29° NNW 20:44:27 29° NNW 20:47:30 10° N visible
23 Oct 6.7 22:29:02 10° NW 22:29:02 10° NW 22:29:45 10° NW visible
24 Oct 5.8 05:40:35 10° N 05:46:05 33° ENE 05:51:33 10° SE visible
24 Oct 5.1 19:24:05 28° NNE 19:24:05 28° NNE 19:26:56 10° NNE visible
24 Oct 5.8 21:08:40 26° NW 21:08:40 26° NW 21:12:03 10° N visible
25 Oct 6.8 04:22:25 10° NE 04:24:16 11° NE 04:26:07 10° ENE visible
25 Oct 5.6 18:03:36 13° NE 18:03:36 13° NE 18:04:55 10° NE visible
25 Oct 4.8 19:48:10 40° NNE 19:48:10 40° NNE 19:51:54 10° N visible
25 Oct 6.2 21:32:44 19° NW 21:32:44 19° NW 21:36:20 10° NNW visible
26 Oct 6.5 04:45:40 10° NNE 04:49:48 18° ENE 04:53:54 10° ESE visible
26 Oct 5.0 18:27:25 24° ENE 18:27:25 24° ENE 18:30:42 10° NNE visible
26 Oct 4.7 20:11:57 49° NNW 20:11:57 49° NNW 20:16:42 10° N visible
26 Oct 6.6 21:56:29 12° WNW 21:57:25 12° NW 21:59:54 10° NNW visible
27 Oct 6.0 05:09:52 10° N 05:15:07 29° ENE 05:20:21 10° SE visible
27 Oct 4.2 18:44:25 10° SSE 18:50:23 44° E 18:56:00 10° NNE visible
27 Oct 5.2 20:30:02 10° SW 20:35:41 36° WNW 20:41:19 10° N visible
28 Oct 5.1 05:34:22 10° N 05:40:15 46° ENE 05:46:08 10° SE visible
28 Oct 5.4 17:27:49 10° ESE 17:30:39 14° ENE 17:33:29 10° NE visible
28 Oct 3.8 19:08:46 10° S 19:14:54 74° E 19:21:01 10° NNE visible
28 Oct 6.0 20:56:08 10° WSW 21:00:55 23° WNW 21:05:41 10° NNW visible
29 Oct 6.6 04:15:08 10° NNE 04:18:44 16° ENE 04:22:21 10° E visible
29 Oct 4.3 05:59:05 10° N 06:05:13 76° E 06:11:22 10° SSE visible
29 Oct 4.9 17:50:19 10° SE 17:54:59 23° E 17:59:37 10° NNE visible
29 Oct 4.1 19:33:36 10° SSW 19:39:45 69° WNW 19:45:52 10° N visible
29 Oct 6.5 21:23:05 10° W 21:26:20 14° NW 21:29:36 10° NNW visible
30 Oct 6.1 04:39:10 10° N 04:44:07 25° ENE 04:49:05 10° ESE visible
30 Oct 4.3 18:13:52 10° SSE 18:19:27 38° E 18:25:01 10° NNE visible
30 Oct 5.0 19:58:57 10° SW 20:04:45 42° WNW 20:10:33 10° N visible
31 Oct 5.4 05:03:36 10° N 05:09:20 40° ENE 05:15:03 10° SE visible
31 Oct 5.6 16:58:22 10° E 17:00:01 11° ENE 17:01:40 10° ENE visible
31 Oct 3.9 18:38:03 10° S 18:44:05 63° E 18:50:08 10° NNE visible
31 Oct 5.8 20:24:50 10° WSW 20:29:55 27° WNW 20:35:01 10° N visible
01 Nov 6.7 03:44:43 10° NNE 03:47:40 14° NE 03:50:38 10° E visible
01 Nov 4.5 05:28:15 10° N 05:34:21 65° ENE 05:40:27 10° SSE visible
01 Nov 5.1 17:20:05 10° ESE 17:24:16 20° E 17:28:27 10° NE visible
01 Nov 3.9 19:02:43 10° SSW 19:08:52 81° W 19:15:02 10° N visible
01 Nov 6.4 20:51:27 10° W 20:55:16 17° WNW 20:59:07 10° NNW visible
